Location: Unspecified
(0.0000°N, 0.0000°E)
Time: 04:47:46
(UTC+00:00)

deb r/b Ablestar - Pass Details

Date: 23 February 2026
Orbit: 903 x 2194 km, 67.6° (Epoch: 11 March)

Event Time Altitude Azimuth Distance (km) Brightness Sun altitude
Rises 18:56:38 0° 213° (SSW) 4,658 ? -10.7°
Reaches altitude 10° 19:00:09 10° 220° (SW) 3,471 ? -11.5°
Maximum altitude 19:07:28 38° 285° (WNW) 1,702 ? -13.3°
Drops below altitude 10° 19:13:22 10° 352° (N) 2,776 ? -14.8°
Sets 19:15:54 0° 1° (N) 3,631 ? -15.4°
